Location: Gilevgi
(36.8751°N, 30.0581°E)
Time: 18:10:41
(UTC+00:00)

H-II Stage 2 - Pass Details

Date: 11 December 2025
Orbit: 318 x 26713 km, 28.4° (Epoch: 15 January)

Event Time Altitude Azimuth Distance (km) Brightness Sun altitude
Rises 14:41:39 0° 269° (W) 15,098 10.4 -0.5°
Reaches altitude 10° 15:01:44 10° 267° (W) 8,976 9.3 -4.1°
Maximum altitude 15:20:39 43° 204° (SSW) 1,728 4.8 -7.5°
Drops below altitude 10° 15:24:49 10° 130° (SE) 2,086 4.5 -8.3°
Sets 15:26:13 0° 121° (ESE) 2,641 4.9 -8.5°
